Weather History for Huntsville, TX

Change the Weather History Date:

Wednesday, February 20, 2013

  Actual Average (KCXO) Record (KCXO)
Temperature  
Mean Temperature 52 °F -  
Max Temperature 57 °F 64 °F 78 °F (2011)
Min Temperature 48 °F 44 °F 30 °F (2009)
Degree Days  
Heating Degree Days 12    
Growing Degree Days 2 (Base 50)    
Moisture  
Dew Point 38 °F    
Average Humidity 58    
Maximum Humidity 82    
Minimum Humidity 32    
Precipitation  
Precipitation 0.01 in - - ()
Sea Level Pressure  
Sea Level Pressure 29.99 in    
Wind  
Wind Speed 6 mph (ESE)    
Max Wind Speed 12 mph    
Max Gust Speed 21 mph    
Visibility 10 miles    
Events Rain    
Averages and records for this station are not official NWS values.
T = Trace of Precipitation, MM = Missing Value Source: NWS Daily Summary

Daily Weather History Graph

Daily Weather History Graph

Search for Another Location

Airport:

Trip Planner

Search our weather history database for the weather conditions in past years. The results will help you decide how hot, cold, wet, or windy it might be!

Date:

Astronomy

Feb. 20, 2013 Rise Set
Actual Time 6:57 AM CST 6:14 PM CST
Civil Twilight 6:33 AM CST 6:38 PM CST
Nautical Twilight 6:05 AM CST 7:07 PM CST
Astronomical Twilight 5:37 AM CST 7:35 PM CST
Moon 1:48 PM CST (2/20) 3:07 AM CST (2/20)
Length of Visible Light 12h 05m
Length of Day
11h 16m
Waxing Gibbous, 76% of the Moon is Illuminated
Feb 20
Waxing Gibbous
Feb 25
Full
Mar 4
Last Quarter
Mar 11
New
Mar 19
First Quarter

Hourly Weather History & Observations

Time (CST) Temp. Dew Point Humidity Pressure Visibility Wind Dir Wind Speed Gust Speed Precip Events Conditions
12:53 AM 54.0 °F 34.0 °F 47% 30.14 in 10.0 mi East 4.6 mph - N/A   Mostly Cloudy
1:53 AM 51.1 °F 36.0 °F 56% 30.14 in 10.0 mi Calm Calm - N/A   Mostly Cloudy
2:53 AM 52.0 °F 35.1 °F 53% 30.11 in 10.0 mi East 4.6 mph - N/A   Overcast
3:53 AM 51.1 °F 36.0 °F 56% 30.10 in 10.0 mi East 5.8 mph - N/A   Mostly Cloudy
4:53 AM 52.0 °F 32.0 °F 47% 30.11 in 10.0 mi ESE 9.2 mph - N/A   Overcast
5:53 AM 50.0 °F 35.1 °F 57% 30.10 in 10.0 mi ESE 8.1 mph - 0.00 in Rain Light Rain
6:53 AM 48.0 °F 36.0 °F 63% 30.14 in 10.0 mi Calm Calm - 0.01 in   Overcast
7:53 AM 50.0 °F 32.0 °F 50% 30.12 in 10.0 mi ESE 4.6 mph - 0.00 in   Overcast
8:53 AM 51.1 °F 27.0 °F 39% 30.10 in 10.0 mi ESE 9.2 mph - N/A   Overcast
10:53 AM 53.1 °F 24.1 °F 32% 30.08 in 10.0 mi ESE 9.2 mph 19.6 mph N/A   Overcast
11:53 AM 53.1 °F 27.0 °F 37% 30.04 in 10.0 mi ESE 5.8 mph - 0.00 in   Overcast
12:53 PM 53.1 °F 30.0 °F 41% 30.01 in 10.0 mi ESE 8.1 mph - N/A   Overcast
1:53 PM 55.9 °F 35.1 °F 45% 29.97 in 10.0 mi ESE 11.5 mph 20.7 mph N/A   Overcast
2:38 PM 55.4 °F 39.2 °F 54% 29.95 in 10.0 mi ESE 8.1 mph - N/A   Overcast
2:53 PM 55.9 °F 41.0 °F 57% 29.94 in 10.0 mi ESE 8.1 mph - N/A   Overcast
3:53 PM 55.9 °F 42.1 °F 60% 29.92 in 10.0 mi East 8.1 mph - N/A   Overcast
4:53 PM 55.9 °F 44.1 °F 64% 29.91 in 10.0 mi ESE 8.1 mph - N/A   Overcast
5:53 PM 55.0 °F 44.1 °F 67% 29.90 in 10.0 mi ESE 6.9 mph - N/A   Overcast
6:53 PM 54.0 °F 45.0 °F 72% 29.88 in 10.0 mi ESE 8.1 mph 17.3 mph N/A   Overcast
7:53 PM 55.0 °F 45.0 °F 69% 29.86 in 10.0 mi ESE 8.1 mph - N/A   Overcast
9:53 PM 55.9 °F 48.9 °F 77% 29.85 in 10.0 mi ESE 6.9 mph - N/A   Overcast
10:53 PM 57.0 °F 50.0 °F 77% 29.82 in 10.0 mi ESE 9.2 mph - N/A   Overcast
11:10 PM 57.2 °F 51.8 °F 82% 29.81 in 10.0 mi ESE 8.1 mph 18.4 mph N/A   Overcast
11:53 PM 57.0 °F 51.1 °F 81% 29.79 in 10.0 mi ESE 9.2 mph 20.7 mph N/A   Overcast